Wind_Speed
2 2 1 1 1 1 1 1 1 1 2 3 3 3 3 3 3 3 3 3 4 4 4 5 5 5 5 5 6 7 7 6 6 6 7 7 8 7 8 8 9 9 9
2 1 0 1 1 1 1 1 1 2 2 3 3 3 4 4 4 4 4 4 5 5 5 6 6 6 6 7 7 8 8 8 8 8 8 9 8 9 10 9 10 10 11
4 3 3 2 1 1 2 2 2 3 3 4 4 4 5 5 4 4 5 6 6 6 6 7 7 7 7 7 8 9 9 9 10 10 9 9 10 10 11 10 11 11 12
5 5 4 3 3 3 3 3 3 4 4 5 5 5 6 6 6 6 7 7 7 7 8 8 8 8 8 9 9 9 10 10 10 9 9 10 11 12 12 12 13 13 13
5 5 5 5 5 5 5 5 5 5 6 6 6 7 7 7 8 8 9 9 8 8 9 9 9 10 10 10 10 11 11 11 11 11 11 11 12 13 14 14 14 14 14
7 7 7 7 7 7 7 7 7 7 7 8 8 9 9 9 9 10 10 10 10 10 10 11 11 11 11 11 12 12 12 12 12 12 12 13 13 14 15 14 14 14 14
8 8 9 9 9 9 10 9 9 9 9 9 10 10 11 11 11 11 11 11 12 12 12 12 13 13 13 13 13 13 13 14 13 13 14 14 15 15 15 16 16 15 14
10 10 10 11 11 11 11 11 11 12 11 12 12 12 12 12 12 12 12 13 13 14 14 14 14 14 14 15 14 14 15 15 15 15 15 16 16 16 17 17 17 17 16
13 12 12 13 13 13 13 13 13 13 13 13 14 13 13 13 13 13 13 14 14 15 15 16 16 16 16 16 16 16 17 17 17 17 17 18 18 18 18 18 18 19 18
14 14 14 14 15 14 14 14 15 15 15 15 15 14 14 15 15 15 15 15 16 16 17 18 18 18 18 17 17 17 17 18 18 18 19 19 20 20 19 19 19 19 19
15 16 17 16 16 16 16 16 16 16 16 17 16 16 16 16 16 16 16 17 17 18 19 19 18 18 18 18 18 19 19 18 18 19 20 20 20 20 20 20 20 20 20
16 17 17 17 17 17 18 18 18 18 18 19 18 18 18 18 18 18 18 18 18 19 19 19 19 19 20 20 20 19 19 19 19 19 20 21 21 20 20 20 20 20 21
17 17 18 18 18 19 19 20 20 20 21 20 20 21 21 20 20 20 20 20 20 20 20 20 20 21 21 21 21 21 21 20 20 21 21 21 21 21 21 21 21 21 22
17 17 18 19 19 19 20 21 22 22 22 22 22 23 22 22 22 22 22 22 22 22 22 21 22 22 22 22 22 22 22 22 22 22 22 23 23 22 22 22 23 23 23
18 18 19 20 21 21 21 22 23 23 23 24 24 24 23 23 24 25 24 24 24 23 23 23 23 24 24 24 23 24 24 23 24 24 24 24 24 23 24 24 24 24 24
20 20 20 20 21 21 22 23 23 24 25 26 27 26 25 26 26 26 26 25 25 24 24 25 25 25 25 25 25 25 25 25 25 26 26 26 26 25 25 25 25 25 25
21 22 21 21 22 23 24 25 26 26 27 27 27 28 27 28 28 27 27 26 26 26 26 26 26 26 26 26 27 26 26 26 26 27 27 27 27 26 26 26 26 26 25
23 24 25 25 24 25 25 26 27 27 27 27 27 28 28 28 28 28 28 28 28 28 28 28 28 28 28 28 28 28 28 28 28 28 28 29 28 28 27 27 27 26 25
24 25 26 26 26 26 27 27 27 27 27 28 27 28 28 29 29 29 30 29 29 29 29 30 30 29 29 28 28 29 28 28 28 28 28 28 28 28 27 27 27 26 25
24 24 25 25 26 27 27 27 28 28 28 29 29 30 30 30 30 30 30 29 29 29 30 30 30 30 29 29 29 28 28 28 28 28 27 27 27 27 27 27 26 26 25
24 25 25 26 27 27 28 29 30 30 30 30 30 30 31 31 31 30 30 30 30 30 30 30 30 30 29 28 28 28 28 28 28 27 27 27 26 27 27 27 27 26 26
26 27 28 28 28 29 30 30 31 31 32 32 32 31 31 31 30 31 31 30 30 30 31 31 31 30 29 29 29 29 29 29 28 27 27 27 27 27 28 27 27 26 25
27 28 29 29 30 30 31 32 32 32 32 33 33 32 32 31 31 31 31 31 31 32 32 32 32 32 31 30 30 30 30 30 29 28 27 27 27 27 27 26 26 26 26
29 30 30 31 31 32 32 32 33 33 33 33 33 32 32 32 32 32 32 32 32 32 32 31 31 32 31 30 30 30 30 29 29 28 28 28 28 28 28 28 28 28 28
31 31 32 32 33 33 33 33 32 32 32 33 33 33 32 32 32 32 33 33 32 31 31 32 32 31 31 30 30 30 30 30 29 29 29 29 29 29 29 28 29 29 29
31 32 33 34 34 34 33 32 32 32 32 32 32 32 32 32 32 32 33 33 32 32 32 32 31 31 30 30 30 31 31 31 30 29 29 29 29 29 29 29 29 29 29
Wind_Direction
16 35 73 58 44 41 22 40 59 32 17 6 359 0 352 343 341 334 327 335 338 337 328 320 318 320 318 315 317 309 307 295 297 297 295 294 294 293 294 293 290 284 283
342 339 346 17 15 13 359 334 325 331 334 332 328 331 332 329 330 328 317 318 324 329 328 323 317 315 313 308 309 311 309 300 299 296 295 293 292 294 294 294 294 289 288
321 314 308 301 310 328 328 320 309 305 306 311 312 317 319 318 319 312 309 307 311 317 319 320 321 319 314 309 306 306 302 297 296 295 297 295 294 295 293 292 294 292 291
315 307 297 291 287 297 304 305 306 307 305 301 305 309 310 310 308 303 303 303 304 306 307 310 313 313 310 308 306 305 305 304 301 299 301 300 301 299 294 292 292 291 289
307 303 293 290 283 284 290 292 289 294 302 301 300 301 304 302 300 299 296 295 297 299 303 305 305 304 306 306 305 303 301 302 303 300 299 299 299 298 295 292 292 291 290
299 295 288 284 282 280 279 282 283 288 294 296 297 299 302 301 296 295 294 293 296 296 297 300 302 301 301 303 302 299 297 299 301 300 299 297 295 297 296 293 293 290 290
291 288 286 280 276 276 274 276 281 284 287 288 291 295 298 298 298 294 293 295 291 290 293 298 299 297 297 298 298 296 296 298 298 297 299 299 296 296 298 296 291 289 289
284 284 284 281 276 274 274 278 285 285 285 285 287 289 292 295 296 295 295 294 290 288 289 293 295 296 297 297 296 295 294 295 295 294 294 296 297 294 295 294 293 290 287
277 280 282 282 280 277 277 281 286 289 290 289 289 288 288 290 291 294 293 292 291 290 289 291 292 294 294 293 292 293 292 291 293 293 293 293 294 294 292 289 290 290 286
273 276 282 280 278 278 279 281 285 288 289 290 289 289 289 289 288 289 289 290 291 291 289 289 291 291 290 290 290 290 289 290 291 292 292 292 293 294 292 288 287 288 285
274 277 279 277 277 279 279 280 283 284 285 284 283 283 285 286 289 288 288 290 291 292 290 288 288 289 290 291 294 296 289 290 292 293 293 293 292 294 294 291 288 287 284
271 274 275 276 276 277 279 281 283 284 284 284 283 281 283 284 286 287 289 291 292 291 290 289 289 290 290 291 292 294 291 291 292 292 294 294 293 293 293 293 291 287 287
271 273 272 273 276 278 280 281 281 282 283 285 285 283 281 281 284 286 288 290 290 289 288 288 289 290 291 290 291 292 292 291 291 290 291 293 292 292 292 291 291 291 290
270 270 271 273 277 278 279 280 280 281 283 284 285 285 283 280 283 285 287 288 288 287 287 287 289 290 291 290 290 290 289 290 290 290 290 291 292 292 292 290 290 290 290
267 268 270 273 275 277 279 281 282 283 285 285 285 285 284 283 282 283 285 285 285 285 285 286 288 290 290 291 290 288 286 286 287 288 289 291 290 289 290 291 290 290 290
266 268 272 273 275 277 281 283 284 285 288 288 287 284 284 284 283 282 284 284 284 284 285 285 286 288 289 288 288 287 287 286 286 287 288 289 288 287 288 289 289 289 289
269 269 271 274 275 276 280 283 284 286 287 288 289 288 287 285 284 284 284 283 283 283 282 282 284 285 285 286 287 286 286 286 287 287 287 287 285 285 286 287 287 288 289
270 270 271 273 276 277 277 280 282 284 285 287 288 287 286 286 286 284 282 282 281 282 283 283 283 283 284 285 285 285 285 286 287 288 287 286 285 285 285 286 287 288 288
270 271 272 274 275 277 278 279 281 284 285 287 288 288 289 290 288 284 281 280 280 281 281 283 283 283 283 284 284 284 285 287 286 287 287 285 285 285 285 286 287 286 286
273 273 273 274 275 276 277 279 281 283 285 286 286 287 287 289 287 286 283 280 280 281 282 283 282 281 282 283 284 284 285 286 286 286 285 285 284 283 283 285 286 286 286
273 274 275 276 276 277 278 280 281 283 284 286 287 287 286 286 286 286 284 282 281 282 282 283 282 281 282 283 284 284 285 286 285 285 284 284 285 284 283 284 285 286 284
276 277 277 277 277 278 280 281 281 282 283 285 286 285 285 285 286 284 285 285 283 284 284 283 282 282 281 282 284 284 285 285 284 284 284 283 282 283 283 283 283 283 284
278 278 278 278 279 280 280 280 281 283 284 285 285 284 284 283 283 283 284 284 284 283 284 283 282 282 282 283 284 284 284 284 283 283 281 280 281 282 282 282 283 283 284
278 279 278 278 280 283 282 282 282 283 284 285 285 284 283 283 283 282 282 283 284 283 284 283 281 281 281 281 281 282 282 281 280 280 281 281 281 282 282 281 281 282 283
279 279 280 281 282 283 283 283 283 284 284 284 284 284 284 284 283 282 282 282 282 282 282 281 280 279 278 278 280 282 282 281 279 279 280 281 281 282 283 283 282 282 282
279 280 281 283 284 283 283 284 283 283 283 283 283 282 282 282 282 281 281 280 280 280 281 280 279 279 277 278 280 281 280 280 280 280 281 281 282 284 284 284 283 283 282
Height
5908 5907 5907 5906 5906 5905 5905 5904 5903 5903 5902 5902 5901 5900 5899 5898 5897 5896 5895 5894 5893 5892 5891 5890 5889 5889 5888 5887 5886 5885 5884 5883 5882 5882 5881 5881 5880 5879 5879 5878 5877 5877 5876
5909 5908 5907 5907 5906 5906 5905 5904 5904 5903 5902 5902 5901 5900 5899 5898 5897 5896 5895 5894 5893 5892 5890 5889 5888 5887 5887 5886 5885 5884 5883 5882 5881 5881 5880 5880 5879 5878 5877 5876 5875 5875 5874
5909 5908 5907 5907 5906 5906 5905 5905 5904 5903 5902 5901 5900 5899 5898 5897 5896 5895 5894 5893 5892 5891 5890 5888 5887 5886 5885 5884 5883 5882 5881 5880 5879 5878 5878 5877 5877 5876 5875 5874 5873 5872 5871
5909 5908 5907 5907 5906 5906 5905 5904 5903 5902 5901 5900 5900 5899 5897 5896 5895 5894 5893 5892 5890 5889 5888 5887 5886 5885 5884 5883 5881 5881 5880 5878 5877 5876 5876 5875 5874 5873 5872 5872 5870 5869 5868
5908 5907 5907 5906 5905 5905 5904 5903 5902 5901 5900 5899 5898 5897 5896 5894 5893 5892 5891 5890 5889 5888 5887 5886 5884 5883 5882 5881 5880 5879 5878 5876 5875 5874 5874 5873 5871 5870 5869 5868 5867 5866 5864
5907 5906 5906 5905 5904 5903 5903 5902 5901 5900 5899 5898 5896 5895 5894 5893 5891 5890 5889 5887 5886 5885 5884 5884 5882 5881 5880 5879 5878 5877 5875 5874 5873 5872 5871 5870 5869 5867 5866 5864 5863 5862 5861
5905 5905 5904 5903 5902 5901 5900 5900 5899 5898 5897 5896 5894 5893 5892 5890 5889 5888 5886 5885 5884 5883 5882 5881 5880 5879 5877 5876 5875 5874 5873 5871 5870 5869 5868 5866 5865 5863 5862 5861 5859 5858 5856
5903 5903 5902 5901 5900 5899 5898 5897 5897 5896 5894 5893 5892 5891 5889 5888 5886 5885 5884 5882 5881 5880 5879 5878 5877 5876 5874 5873 5872 5870 5869 5868 5867 5866 5864 5863 5861 5860 5858 5857 5855 5854 5853
5900 5900 5899 5898 5897 5897 5896 5895 5894 5893 5892 5890 5889 5888 5886 5885 5884 5882 5881 5880 5878 5877 5876 5875 5874 5872 5871 5869 5868 5867 5866 5864 5863 5862 5860 5859 5857 5855 5854 5852 5851 5849 5848
5897 5897 5896 5895 5894 5893 5893 5892 5891 5890 5889 5887 5886 5884 5883 5882 5880 5879 5877 5876 5875 5873 5872 5871 5870 5868 5866 5865 5864 5862 5861 5860 5858 5857 5856 5854 5852 5851 5849 5847 5845 5844 5843
5893 5893 5892 5891 5890 5889 5889 5888 5887 5886 5885 5883 5882 5880 5879 5878 5877 5875 5873 5872 5871 5869 5868 5866 5865 5864 5862 5861 5859 5858 5856 5855 5854 5852 5851 5849 5847 5845 5844 5842 5840 5838 5837
5889 5888 5888 5887 5886 5885 5884 5884 5883 5882 5880 5879 5877 5876 5875 5874 5872 5871 5869 5868 5866 5865 5863 5862 5860 5859 5858 5856 5854 5853 5851 5850 5848 5847 5845 5844 5842 5840 5838 5837 5835 5833 5832
5884 5884 5883 5882 5882 5881 5880 5879 5878 5877 5876 5875 5873 5871 5870 5868 5867 5866 5864 5863 5861 5860 5858 5857 5855 5854 5852 5851 5849 5847 5846 5844 5843 5841 5839 5838 5836 5834 5832 5831 5829 5828 5826
5879 5879 5878 5878 5877 5877 5876 5874 5873 5872 5871 5869 5868 5866 5864 5863 5862 5860 5859 5857 5856 5854 5853 5851 5850 5848 5846 5845 5843 5841 5840 5838 5837 5835 5834 5832 5830 5828 5826 5825 5823 5821 5820
5874 5874 5873 5873 5872 5871 5870 5869 5868 5866 5865 5864 5862 5861 5859 5857 5856 5854 5853 5851 5849 5848 5847 5845 5843 5842 5840 5839 5837 5835 5833 5832 5830 5829 5827 5825 5824 5822 5820 5818 5816 5815 5813
5869 5868 5868 5867 5867 5866 5865 5863 5862 5860 5859 5857 5856 5854 5853 5851 5849 5847 5846 5844 5843 5841 5840 5838 5837 5835 5834 5832 5831 5829 5827 5825 5824 5822 5820 5818 5817 5815 5813 5811 5809 5808 5806
5863 5862 5862 5861 5861 5859 5858 5857 5856 5854 5853 5851 5849 5847 5845 5844 5842 5840 5839 5837 5836 5834 5833 5831 5829 5828 5827 5825 5824 5822 5820 5818 5817 5815 5813 5811 5809 5808 5806 5804 5802 5800 5798
5856 5856 5855 5855 5854 5853 5851 5850 5849 5848 5846 5844 5842 5840 5838 5837 5835 5833 5832 5830 5828 5827 5825 5824 5822 5820 5819 5817 5816 5814 5812 5810 5809 5807 5805 5803 5801 5800 5798 5797 5795 5793 5791
5849 5849 5848 5848 5847 5845 5844 5843 5842 5841 5839 5837 5835 5833 5831 5830 5828 5826 5824 5822 5820 5819 5817 5816 5814 5812 5811 5809 5807 5805 5804 5802 5801 5799 5797 5795 5793 5792 5790 5789 5787 5785 5784
5842 5842 5841 5840 5840 5839 5837 5836 5835 5833 5832 5830 5828 5826 5824 5822 5820 5818 5816 5814 5812 5810 5809 5807 5806 5804 5803 5801 5799 5797 5796 5794 5793 5791 5789 5787 5785 5784 5782 5781 5779 5778 5776
5835 5835 5834 5833 5832 5831 5830 5828 5827 5825 5824 5821 5819 5817 5815 5813 5811 5810 5808 5806 5804 5802 5800 5799 5797 5796 5794 5793 5791 5789 5788 5786 5784 5782 5781 5779 5778 5776 5774 5773 5771 5770 5768
5828 5827 5826 5825 5824 5823 5821 5820 5818 5817 5815 5813 5811 5809 5807 5805 5803 5802 5800 5798 5796 5794 5792 5790 5788 5787 5786 5785 5783 5781 5780 5778 5776 5775 5773 5772 5770 5768 5767 5765 5763 5762 5760
5820 5818 5818 5817 5816 5814 5813 5811 5809 5808 5806 5804 5802 5800 5798 5796 5795 5793 5791 5789 5787 5785 5783 5781 5779 5778 5777 5776 5775 5773 5771 5769 5768 5766 5765 5763 5762 5760 5758 5757 5756 5754 5752
5811 5810 5809 5808 5806 5805 5803 5801 5800 5798 5796 5794 5792 5790 5789 5787 5785 5784 5782 5780 5778 5776 5774 5772 5771 5769 5768 5767 5765 5764 5762 5761 5759 5758 5756 5755 5753 5752 5750 5749 5747 5746 5744
5803 5802 5800 5799 5797 5795 5793 5792 5790 5788 5786 5784 5783 5781 5779 5777 5776 5774 5772 5771 5769 5767 5765 5763 5761 5760 5759 5758 5757 5755 5753 5752 5751 5749 5748 5746 5744 5743 5741 5740 5739 5737 5736
5793 5792 5790 5789 5787 5785 5783 5782 5780 5778 5776 5774 5773 5771 5769 5767 5766 5764 5763 5761 5759 5757 5755 5754 5752 5751 5750 5749 5748 5746 5744 5743 5742 5740 5739 5737 5736 5734 5732 5731 5730 5728 5726